OBJECT C, 55135

Orbit data source: Space-Track

You're viewing an Uncataloged Satellite

Recently launched and/or uncataloged satellites may have evolving metadata. Metadata may include but not limited to: Owner, Maufacturer, Bus, Motor, and Mission.

OBJECT C, 55135 is a satellite owned by Hangtian Tianmu (CN) in SSO that was launched on Mon, 09 Jan 2023 UTC via a GUSHENXING 1 launch vehicle from the Jiuquan Satellite Launch Center, China (JSC). Unknown objects in Earth's orbit typically refer to objects detected orbiting the Earth but have not yet been identified or cataloged. These objects could be anything from previously untracked satellites, spent rocket stages, debris from satellite collisions, or even natural meteoroids temporarily captured by Earth's gravity.

Loading next visibility...
Identifier
55135, 2023-003C
Orbit
SSO
Country
Flag of CNCN / PRC
Related business
Manufacturer
Hangtian Tianmu
Mission
Operational Commercial Weather
Bus & Motor
TIANMU, Unknown motor
Mass
50 kg wet, ~50 kg dry
Launch date (UTC)
2023-01-09 (3 years ago)
Launch vehicle
GUSHENXING 1
Launch site
Jiuquan Satellite Launch Center, China (JSC)
Object type
Unknown
Shape & HBR
Box, 0.8 m
Radar Cross Section
2.000 m², Medium (>0.1 m² and < 1m²)

Expand to show TLE details & history
Last TLE update: 22 hours ago

TLE from 22 hours ago
0 OBJECT C
1 55135U 23003C   26172.52632979  .00019466  00000-0  28300-3 0  9990
2 55135  97.1519 249.0867 0004556 113.2942 246.8793 15.55801681192956
Epoch: 2026-06-21T12:37Z
TLE epoch observation values (Epoch: 2026-06-21T12:37:54.893Z)
Latitude
-0.00006°
Longitude
149.88265°
Altitude
404.183 km
Speed
7.667 km/s
True Right ascension
16h 36m 20s
True Declination
0° 00' 00"
Sunlit
Object was in full shadow at epoch
Visualization orbit readout
Latitude
Unknown
Longitude
Unknown
Altitude
Unknown
Speed
Unknown
Apparent Right ascension
Unknown
Apparent Declination
Unknown
Sunlit
N/A
Visualization observer readout
Local Sidereal Time
21:31:15
Azimuth
Unknown
Elevation
Unknown
Doppler factor
Unknown
Orbital elements
Apogee altitude
399.817 km
Perigee altitude
393.644 km
Semi-major axis
6,774.868 km
Eccentricity
0.00046
Inclination
97.1519°
RAAN
249.0867°
Arg. of periapsis
113.2942°
True anomaly
246.8313°
Mean anomaly
246.8793°
Eccentric anomaly
246.8553°
Mean motion
3.89217 °/min
Orbital period
92.49 mins
BSTAR
0.000283
Loading maneuver chart data...
Computing Atmospheric mass density...
Loading historical data...
Loading historical data...
Loading historical data...
Loading historical data...
Loading historical data...
Loading historical data...
Loading historical data...
Other satellites on launch #3 in the year 2023 (2023-01-09 UTC)

Documentation

Showing up to 5 results
|